Location: Spangle
(47.4302°N, 117.3779°W)
Time: 12:10:33
(UTC+00:00)

ISS - Pass Details

Date: 26 April 2026
Orbit: 414 x 424 km, 51.6° (Epoch: 11 May)

Event Time Altitude Azimuth Distance (km) Brightness Sun altitude
Exits shadow 09:44:26 24° 91° (E) 917 -1.8 -23.6°
Drops below altitude 10° 09:46:03 10° 75° (ENE) 1,501 -0.4 -23.5°
Sets 09:48:14 0° 68° (ENE) 2,371 0.9 -23.3°
